TimeEST,TemperatureF,Dew PointF,Humidity,Sea Level PressureIn,VisibilityMPH,Wind Direction,Wind SpeedMPH,Gust SpeedMPH,PrecipitationIn,Events,Conditions,WindDirDegrees,DateUTC
12:53 AM,39.0,36.0,89,29.84,10.0,WNW,3.5,-,N/A,,Partly Cloudy,290,2013-02-20 05:53:00
1:53 AM,37.9,28.9,70,29.86,10.0,NW,8.1,-,N/A,,Clear,320,2013-02-20 06:53:00
2:53 AM,36.0,27.0,70,29.87,10.0,WNW,5.8,-,N/A,,Clear,300,2013-02-20 07:53:00
3:53 AM,35.1,25.0,67,29.88,10.0,WNW,5.8,-,N/A,,Clear,300,2013-02-20 08:53:00
4:53 AM,33.1,23.0,66,29.89,10.0,WNW,3.5,-,N/A,,Clear,300,2013-02-20 09:53:00
5:53 AM,32.0,23.0,69,29.92,10.0,WNW,4.6,-,N/A,,Clear,300,2013-02-20 10:53:00
6:53 AM,30.9,21.9,69,29.96,10.0,NW,4.6,-,N/A,,Clear,310,2013-02-20 11:53:00
7:53 AM,34.0,21.0,59,29.98,10.0,NW,6.9,-,N/A,,Clear,310,2013-02-20 12:53:00
8:53 AM,35.1,19.0,52,29.98,10.0,NW,13.8,20.7,N/A,,Clear,310,2013-02-20 13:53:00
9:53 AM,37.0,19.0,48,29.98,10.0,NW,8.1,23.0,N/A,,Clear,310,2013-02-20 14:53:00
10:53 AM,37.9,19.0,47,29.99,10.0,WNW,15.0,23.0,N/A,,Clear,300,2013-02-20 15:53:00
11:53 AM,39.0,19.0,45,29.99,10.0,West,17.3,25.3,N/A,,Clear,280,2013-02-20 16:53:00
12:53 PM,39.0,18.0,43,29.97,10.0,WNW,17.3,28.8,N/A,,Clear,300,2013-02-20 17:53:00
1:53 PM,39.0,18.0,43,29.96,10.0,WNW,17.3,29.9,N/A,,Partly Cloudy,290,2013-02-20 18:53:00
2:53 PM,37.0,16.0,42,29.98,10.0,WNW,15.0,27.6,N/A,,Scattered Clouds,300,2013-02-20 19:53:00
3:53 PM,39.0,16.0,39,29.99,10.0,NW,11.5,19.6,N/A,,Clear,310,2013-02-20 20:53:00
4:53 PM,37.0,17.1,44,29.99,10.0,NNW,12.7,20.7,N/A,,Clear,330,2013-02-20 21:53:00
5:53 PM,34.0,16.0,48,30.02,10.0,NW,9.2,-,N/A,,Clear,320,2013-02-20 22:53:00
6:53 PM,33.1,17.1,52,30.05,10.0,NNW,9.2,-,N/A,,Clear,330,2013-02-20 23:53:00
7:53 PM,30.9,16.0,54,30.08,10.0,NNW,10.4,-,N/A,,Clear,340,2013-02-21 00:53:00
8:53 PM,30.0,14.0,51,30.08,10.0,NW,13.8,24.2,N/A,,Clear,320,2013-02-21 01:53:00
9:53 PM,28.9,12.9,51,30.11,10.0,NNW,13.8,20.7,N/A,,Clear,330,2013-02-21 02:53:00
10:53 PM,28.0,10.9,49,30.11,10.0,NNW,11.5,18.4,N/A,,Clear,340,2013-02-21 03:53:00
11:53 PM,27.0,12.0,53,30.12,10.0,NW,8.1,-,N/A,,Clear,310,2013-02-21 04:53:00